Change the Weather History Date:

Wednesday, August 8, 2012

  Actual Average Record
Temperature  
Mean Temperature 71 °F 64 °F  
Max Temperature 91 °F 82 °F 92 °F (1990)
Min Temperature 50 °F 46 °F 33 °F (1988)
Degree Days  
Heating Degree Days 0 3  
Month to date heating degree days 13 18  
Since 1 June heating degree days 306 405  
Since 1 July heating degree days 33 118  
Cooling Degree Days 6 1  
Month to date cooling degree days 12 10  
Year to date cooling degree days 106 61  
Since 1 June cooling degree days 106 61  
Growing Degree Days 21 (Base 50)    
Moisture  
Dew Point 37 °F    
Average Humidity 34    
Maximum Humidity 54    
Minimum Humidity 13    
Precipitation  
Precipitation 0.00 in 0.04 in 0.90 in (1899)
Month to date precipitation T 0.33  
Year to date precipitation 7.15 8.85  
Sea Level Pressure  
Sea Level Pressure 30.08 in    
Wind  
Wind Speed 5 mph (SSW)    
Max Wind Speed 23 mph    
Max Gust Speed 32 mph    
Visibility 10 miles    
Events      
T = Trace of Precipitation, MM = Missing Value Source: NWS Daily Summary

Daily Weather History Graph

Daily Weather History Graph

Search for Another Location

Airport or City:

Trip Planner

Search our weather history database for the weather conditions in past years. The results will help you decide how hot, cold, wet, or windy it might be!

Date:

Astronomy

Aug. 08, 2012 Rise Set
Actual Time 6:21 AM MDT 8:48 PM MDT
Civil Twilight 5:48 AM MDT 9:21 PM MDT
Nautical Twilight 5:06 AM MDT 10:03 PM MDT
Astronomical Twilight 4:18 AM MDT 10:50 PM MDT
Moon 11:37 PM MDT (8/8) 1:37 PM MDT (8/8)
Length of Visible Light 15h 33m
Length of Day
14h 26m
Waning Gibbous, 60% of the Moon is Illuminated
Aug 8
Waning Gibbous
Aug 9
Last Quarter
Aug 17
New
Aug 24
First Quarter
Aug 31
Full

Hourly Weather History & Observations

Time (MDT) Temp. Dew Point Humidity Pressure Visibility Wind Dir Wind Speed Gust Speed Precip Events Conditions
12:53 AM 61.0 °F 36.0 °F 39% 30.09 in 10.0 mi ESE 3.5 mph - N/A   Clear
1:53 AM 57.0 °F 36.0 °F 45% 30.09 in 10.0 mi Calm Calm - N/A   Clear
2:53 AM 55.0 °F 36.0 °F 49% 30.08 in 10.0 mi Calm Calm - N/A   Clear
3:53 AM 55.0 °F 35.1 °F 47% 30.08 in 10.0 mi Calm Calm - N/A   Clear
4:53 AM 53.1 °F 34.0 °F 48% 30.08 in 10.0 mi SSE 3.5 mph - N/A   Clear
5:53 AM 51.1 °F 35.1 °F 54% 30.09 in 10.0 mi Calm Calm - N/A   Clear
6:53 AM 51.1 °F 35.1 °F 54% 30.10 in 10.0 mi Calm Calm - N/A   Clear
7:53 AM 54.0 °F 35.1 °F 49% 30.10 in 10.0 mi ESE 3.5 mph - N/A   Clear
8:53 AM 61.0 °F 37.0 °F 41% 30.11 in 10.0 mi Calm Calm - N/A   Clear
9:53 AM 70.0 °F 37.0 °F 30% 30.09 in 10.0 mi Calm Calm - N/A   Clear
10:53 AM 78.1 °F 37.0 °F 23% 30.06 in 10.0 mi North 4.6 mph - N/A   Clear
11:53 AM 84.0 °F 37.0 °F 19% 30.04 in 10.0 mi Variable 3.5 mph - N/A   Clear
12:53 PM 88.0 °F 37.9 °F 17% 30.01 in 10.0 mi NNE 3.5 mph - N/A   Clear
1:53 PM 91.0 °F 34.0 °F 13% 30.01 in 10.0 mi Variable 5.8 mph - N/A   Clear
2:53 PM 90.0 °F 34.0 °F 14% 30.00 in 10.0 mi SSE 10.4 mph - N/A   Clear
3:39 PM 87.8 °F 33.8 °F 15% 30.21 in 8.0 mi WNW 15.0 mph 25.3 mph N/A   Partly Cloudy
3:53 PM 86.0 °F 36.0 °F 17% 30.03 in 9.0 mi NW 17.3 mph 24.2 mph N/A   Partly Cloudy
4:53 PM 84.0 °F 37.0 °F 19% 30.04 in 7.0 mi WNW 3.5 mph - N/A   Clear
5:53 PM 84.9 °F 35.1 °F 17% 30.05 in 9.0 mi South 6.9 mph - N/A   Clear
6:53 PM 84.0 °F 34.0 °F 17% 30.04 in 9.0 mi South 11.5 mph - N/A   Clear
7:53 PM 82.0 °F 37.9 °F 21% 30.04 in 10.0 mi South 8.1 mph - N/A   Clear
8:53 PM 75.9 °F 42.1 °F 30% 30.05 in 10.0 mi Calm Calm - N/A   Clear
9:22 PM 75.2 °F 44.6 °F 34% 30.26 in 8.0 mi North 13.8 mph 26.5 mph N/A   Clear
9:53 PM 73.9 °F 43.0 °F 33% 30.09 in 10.0 mi North 13.8 mph - N/A   Clear
10:53 PM 72.0 °F 43.0 °F 35% 30.09 in 10.0 mi West 10.4 mph - N/A   Clear
11:53 PM 66.9 °F 44.1 °F 44% 30.05 in 10.0 mi South 3.5 mph - N/A   Clear